Skip Page Navigation
NASA JPL Caltech
NASA Logo - Jet Propulsion Laboratory + View the NASA Portal
+ Near-Earth Object (NEO) Program
Search JPL
JPL Home Earth Solar System Stars & Galaxies Technology
JPL Solar System Dynamics
BODIES ORBITS EPHEMERIDES TOOLS PHYSICAL DATA DISCOVERY FAQ SITE MAP
JPL Small-Body Database Browser
Search: [ help ]  
300163 (2006 VW139)
Classification: Main-belt Asteroid          SPK-ID: 2300163
Ephemeris | Orbit Diagram | Orbital Elements | Physical Parameters | Discovery Circumstances | Close-Approach Data ]

[ show orbit diagram ]
Orbital Elements at Epoch 2456800.5 (2014-May-23.0) TDB
Reference: JPL 2 (heliocentric ecliptic J2000)
 Element Value Uncertainty (1-sigma)   Units 
e .2011912851068939 2.1323e-07  
a 3.047185454405759 5.8566e-08 AU
q 2.43411829687483 6.2541e-07 AU
i 3.240673977976154 1.4325e-05 deg
node 83.19083275095173 0.00024791 deg
peri 281.2482258107843 0.00025639 deg
M 193.0783559437111 4.3791e-05 deg
tp 2457701.359182124750
(2016-Nov-08.85918212)
0.00024687 JED
period 1942.883485233031
5.32
5.6013e-05
1.534e-07
d
yr
n .1852916053567779 5.3419e-09 deg/d
Q 3.660252611936688 7.0349e-08 AU
  Orbit Determination Parameters
   # obs. used (total)      150  
   data-arc span      4524 days (12.39 yr)  
   first obs. used      2000-09-03  
   last obs. used      2013-01-22  
   planetary ephem.      DE431  
   SB-pert. ephem.      SB431-BIG16  
   condition code      0  
   fit RMS      .6494  
   data source      ORB  
   producer      Otto Matic  
   solution date      2013-Aug-10 15:34:30  

Additional Information
 Earth MOID = 1.43342 AU 
 T_jup = 3.204 
[ show covariance matrix ]

Ephemeris | Orbit Diagram | Orbital Elements | Physical Parameters | Discovery Circumstances | Close-Approach Data ]

Physical Parameter Table
Parameter Symbol Value Units Sigma Reference Notes
absolute magnitude H 16.1 mag n/a MPO251846  

300163 (2006 VW139)          Discovered 2006-Nov-15 by Spacewatch at Kitt Peak (691)
Reference: 20111012/Numbers.arcLast Updated: 2011-10-13

[ show close-approach data ]
Alternate Designations
 2006 VW139 = 288P 
Ephemeris | Orbit Diagram | Orbital Elements | Physical Parameters | Discovery Circumstances | Close-Approach Data ]
ABOUT SSD CREDITS/AWARDS PRIVACY/COPYRIGHT GLOSSARY LINKS
FirstGov 2014-Apr-19 11:59 UT
(server date/time)  
NASA Home Page
Site Manager:   Donald K. Yeomans
Webmaster  Alan B. Chamberlin